Find Kosmos-1287

NORAD ID: 12636 Int'l Des: 1981-074 Owner: GUKOS Country: SU operational
LEOCIRCULAR

Aktuelle Ansicht

3D-Globus wird geladen...

Über Kosmos-1287

Beschreibung wird geladen...

Nächste Überflüge

Passes for default location (London). Set your location on the main map for personalized predictions.

Höhenverlauf

Loading altitude history...

Zweizeiliger Elementsatz

1 12636U 81074A 26151.17615694 .00000006 00000-0 15454-3 0 9990
2 12636 74.0332 226.1165 0030368 34.3267 325.9736 12.44354723 36310
Epoch: 31. Mai 2026 • Age: 7 hours

Aktueller Status

Höhe 1531.2 km
Geschwindigkeit 7.09 km/s
Subsatellitenpunkt -56.60°S, 12.81°E
Startdatum 6. Aug. 1981
Alter 44.8 years
Typ other

Technische Details

Klassifizierung Payload
Masse 60.00 kg
Trockenmasse 60.00 kg
Gesamtmasse 60.00 kg
Länge 0.80 m
Durchmesser 0.80 m
Spannweite 0.80 m
Form Poly
Hersteller NPOPM
Bus-Typ Strela-1 11F625
Phasenstatus In Orbit
Besitzer/Staat GUKOS/SU

Most Searched